STARLINK-5047 (55409 NORAD) Tracking and Keplerian Element Data

This shows tracking and keplerian element data for the satellite.

Feedback or suggestion? Click here.




ElementValue
Catalog55409
NameSTARLINK-5047
Epoch Orbit1509
Epoch Day126.55608774
Epoch Year2023
RAAN182.9605
Inclination69.9972
Eccentricity0.0003153
Argument of Perigee266.2055
Mean Anonmoly93.878
Mean Motion15.69926198
Decay Rate3.366E-05
L11 55409U 23014U 23126.55608774 .00003366 00000+0 29746-4 0 9998
L22 55409 69.9972 182.9605 0003153 266.2055 93.8780 15.69926198 15092



Live tracking and technical data element details for STARLINK-5047 (NORAD 55409). STARLINK-5047 can be tracked NOW for your location showing map with azimuth and elevation plus other details from your city location.







IsCatalogInMostPopularTable: catalog: 55409, numindb: 2
Update: records affected: 1



GetName: 55409 STARLINK-5047

Hit Count: updated at: Sun, 28 May 2023 07:25:45 GMT